Weather History for Durango, CO

Change the Weather History Date:

Wednesday, November 21, 2012

  Actual Average Record
Temperature  
Mean Temperature 39 °F 34 °F  
Max Temperature 58 °F 47 °F 67 °F (1989)
Min Temperature 19 °F 20 °F 5 °F (1979)
Degree Days  
Heating Degree Days 26 31  
Month to date heating degree days 546 585  
Since 1 July heating degree days 1194 1373  
Cooling Degree Days 0 0  
Month to date cooling degree days 0 0  
Year to date cooling degree days 477 243  
Moisture  
Dew Point 16 °F    
Average Humidity 50    
Maximum Humidity 84    
Minimum Humidity 15    
Precipitation  
Precipitation 0.00 in 0.07 in 0.70 in (1983)
Month to date precipitation 1.10 1.24  
Year to date precipitation 6.91 14.46  
Sea Level Pressure  
Sea Level Pressure 30.24 in    
Wind  
Wind Speed 3 mph (North)    
Max Wind Speed 12 mph    
Max Gust Speed 13 mph    
Visibility 10 miles    
Events      
T = Trace of Precipitation, MM = Missing Value Source: NWS Daily Summary

Daily Weather History Graph

Daily Weather History Graph

Search for Another Location

Airport:

Trip Planner

Search our weather history database for the weather conditions in past years. The results will help you decide how hot, cold, wet, or windy it might be!

Date:

Astronomy

Nov. 21, 2012 Rise Set
Actual Time 6:56 AM MST 4:57 PM MST
Civil Twilight 6:28 AM MST 5:25 PM MST
Nautical Twilight 5:56 AM MST 5:57 PM MST
Astronomical Twilight 5:25 AM MST 6:28 PM MST
Moon 1:07 PM MST (11/21) 12:27 AM MST (11/21)
Length of Visible Light 10h 56m
Length of Day
10h 00m
Waxing Gibbous, 62% of the Moon is Illuminated
Nov 21
Waxing Gibbous
Nov 28
Full
Dec 6
Last Quarter
Dec 13
New
Dec 19
First Quarter

Hourly Weather History & Observations

Time (MST) Temp. Windchill Dew Point Humidity Pressure Visibility Wind Dir Wind Speed Gust Speed Precip Events Conditions
12:53 AM 26.1 °F 21.9 °F 19.0 °F 75% 30.27 in 10.0 mi North 3.5 mph - N/A   Clear
1:53 AM 25.0 °F 20.7 °F 19.0 °F 78% 30.26 in 10.0 mi NNE 3.5 mph - N/A   Clear
2:53 AM 25.0 °F - 18.0 °F 75% 30.26 in 10.0 mi Calm Calm - N/A   Clear
3:53 AM 23.0 °F 17.0 °F 17.1 °F 78% 30.27 in 10.0 mi North 4.6 mph - N/A   Clear
4:53 AM 21.0 °F 13.4 °F 17.1 °F 85% 30.30 in 10.0 mi NNE 5.8 mph - N/A   Clear
5:53 AM 23.0 °F - 16.0 °F 74% 30.30 in 10.0 mi Calm Calm - N/A   Clear
6:53 AM 19.9 °F 13.4 °F 16.0 °F 85% 30.37 in 10.0 mi NE 4.6 mph - N/A   Clear
7:53 AM 28.9 °F 23.9 °F 19.0 °F 67% 30.36 in 10.0 mi North 4.6 mph - N/A   Clear
8:53 AM 35.1 °F - 23.0 °F 61% 30.33 in 10.0 mi Calm Calm - N/A   Clear
9:53 AM 44.1 °F - 19.9 °F 38% 30.28 in 10.0 mi Calm Calm - N/A   Clear
10:53 AM 50.0 °F - 19.0 °F 29% 30.28 in 10.0 mi East 5.8 mph - N/A   Clear
11:53 AM 53.1 °F - 14.0 °F 21% 30.22 in 10.0 mi Variable 4.6 mph - N/A   Clear
12:53 PM 55.9 °F - 14.0 °F 19% 30.18 in 10.0 mi Variable 4.6 mph - N/A   Clear
1:53 PM 57.9 °F - 14.0 °F 18% 30.15 in 10.0 mi Calm Calm - N/A   Clear
2:53 PM 57.0 °F - 14.0 °F 18% 30.14 in 10.0 mi Calm Calm - N/A   Clear
3:53 PM 57.0 °F - 10.0 °F 15% 30.14 in 10.0 mi SSW 6.9 mph - N/A   Clear
4:53 PM 53.1 °F - 12.0 °F 20% 30.17 in 10.0 mi SW 3.5 mph - N/A   Clear
5:53 PM 48.9 °F - 12.9 °F 24% 30.19 in 10.0 mi WSW 3.5 mph - N/A   Clear
6:53 PM 39.9 °F 34.5 °F 14.0 °F 35% 30.26 in 10.0 mi North 8.1 mph - N/A   Clear
7:53 PM 35.1 °F 30.1 °F 16.0 °F 46% 30.25 in 10.0 mi North 5.8 mph - N/A   Clear
8:53 PM 33.1 °F 26.1 °F 16.0 °F 50% 30.23 in 10.0 mi North 8.1 mph - N/A   Clear
9:53 PM 30.0 °F - 16.0 °F 56% 30.21 in 10.0 mi Calm Calm - N/A   Clear
10:53 PM 30.0 °F - 16.0 °F 56% 30.17 in 10.0 mi Calm Calm - N/A   Clear
11:53 PM 28.9 °F 25.2 °F 15.1 °F 56% 30.17 in 10.0 mi North 3.5 mph - N/A   Clear